When you browse on this site, cookies collect data to enhance your experience and personalize the content and advertising you see.
Visit our Privacy Policy to learn more. By continuing to use the site, you agree to this use of cookies and data.
  • In France
  • List of Countries
  • For 7 days
  • Water Temperature
  • Weather Map
  • Weather Widgets
  • user-avatar
    Login

    Hourly Weather Porto Velho

    Today, 21 November, Thursday

    Time Temperature Precipitation Wind Pressure Humidity
    00:00 +23°C° 0.3 mm 0 mps 750 mmHg 96%
    01:00 +23°C° 0.3 mm 0 mps 750 mmHg 97%
    02:00 +23°C° 0.3 mm 0 mps 749 mmHg 98%
    03:00 +22°C° 0 mm 0 mps 749 mmHg 98%
    04:00 +22°C° 0 mm 0 mps 749 mmHg 98%
    05:00 +22°C° 0 mm 0 mps 749 mmHg 98%
    06:00 +23°C° 0 mm 0 mps 750 mmHg 94%
    07:00 +24°C° 0 mm 0 mps 750 mmHg 90%
    08:00 +25°C° 0 mm 0 mps 751 mmHg 86%
    09:00 +26°C° 0 mm 0 mps 751 mmHg 81%
    10:00 +27°C° 0 mm 0 mps 751 mmHg 76%
    11:00 +28°C° 0 mm 0 mps 751 mmHg 71%
    12:00 +29°C° 0.3 mm 0 mps 750 mmHg 67%
    13:00 +30°C° 0.3 mm 0 mps 749 mmHg 62%
    14:00 +32°C° 0.3 mm 0 mps 748 mmHg 58%
    15:00 +33°C° 0.6 mm 1 mps 748 mmHg 64%
    16:00 +32°C° 0.6 mm 1 mps 747 mmHg 70%
    17:00 +31°C° 0.6 mm 1 mps 747 mmHg 76%
    18:00 +27°C° 0.1 mm 0 mps 747 mmHg 81%
    19:00 +26°C° 0.1 mm 0 mps 747 mmHg 87%
    20:00 +24°C° 0.1 mm 0 mps 747 mmHg 92%
    21:00 +24°C° 0 mm 0 mps 748 mmHg 92%
    22:00 +24°C° 0 mm 0 mps 748 mmHg 92%
    23:00 +24°C° 0 mm 0 mps 748 mmHg 93%

    Tomorrow, 22 November, Friday

    Time Temperature Precipitation Wind Pressure Humidity
    00:00 +23°C° 0.3 mm 0 mps 748 mmHg 94%
    01:00 +23°C° 0.3 mm 0 mps 748 mmHg 95%
    02:00 +23°C° 0.3 mm 0 mps 747 mmHg 96%
    03:00 +23°C° 1.3 mm 0 mps 747 mmHg 96%
    04:00 +22°C° 1.3 mm 0 mps 748 mmHg 97%
    05:00 +22°C° 1.3 mm 0 mps 748 mmHg 98%
    06:00 +23°C° 0.9 mm 0 mps 748 mmHg 96%
    07:00 +24°C° 0.9 mm 0 mps 749 mmHg 94%
    08:00 +27°C° 0.9 mm 1 mps 750 mmHg 92%
    09:00 +28°C° 1.7 mm 1 mps 750 mmHg 90%
    10:00 +29°C° 1.7 mm 1 mps 750 mmHg 89%
    11:00 +30°C° 1.7 mm 2 mps 750 mmHg 87%
    12:00 +30°C° 2.8 mm 2 mps 749 mmHg 87%
    13:00 +30°C° 2.8 mm 1 mps 748 mmHg 87%
    14:00 +30°C° 2.8 mm 1 mps 747 mmHg 87%
    15:00 +30°C° 1.4 mm 1 mps 747 mmHg 88%
    16:00 +29°C° 1.4 mm 1 mps 747 mmHg 89%
    17:00 +29°C° 1.4 mm 1 mps 747 mmHg 90%
    18:00 +28°C° 0.2 mm 1 mps 747 mmHg 92%
    19:00 +27°C° 0.2 mm 1 mps 747 mmHg 95%
    20:00 +25°C° 0.2 mm 1 mps 748 mmHg 97%
    21:00 +25°C° 0.2 mm 1 mps 748 mmHg 97%
    22:00 +23°C° 0.2 mm 0 mps 748 mmHg 97%
    23:00 +22°C° 0.2 mm 0 mps 749 mmHg 97%

    Day after tomorrow, 23 November, Saturday

    Time Temperature Precipitation Wind Pressure Humidity
    00:00 +22°C° 0.6 mm 0 mps 748 mmHg 97%
    01:00 +22°C° 0.6 mm 0 mps 748 mmHg 98%
    02:00 +22°C° 0.6 mm 0 mps 748 mmHg 98%
    03:00 +22°C° 0.6 mm 0 mps 748 mmHg 98%
    04:00 +22°C° 0.6 mm 0 mps 748 mmHg 98%
    05:00 +22°C° 0.6 mm 0 mps 748 mmHg 98%
    06:00 +23°C° 0.2 mm 0 mps 749 mmHg 95%
    07:00 +23°C° 0.2 mm 0 mps 750 mmHg 93%
    08:00 +24°C° 0.2 mm 0 mps 750 mmHg 90%
    09:00 +29°C° 0 mm 1 mps 751 mmHg 77%
    10:00 +32°C° 0 mm 1 mps 751 mmHg 64%
    11:00 +35°C° 0 mm 1 mps 751 mmHg 52%
    12:00 +35°C° 0.1 mm 1 mps 750 mmHg 51%
    13:00 +35°C° 0.1 mm 1 mps 748 mmHg 51%
    14:00 +35°C° 0.1 mm 1 mps 747 mmHg 50%
    15:00 +34°C° 0.3 mm 1 mps 747 mmHg 57%
    16:00 +33°C° 0.3 mm 1 mps 747 mmHg 64%
    17:00 +31°C° 0.3 mm 1 mps 746 mmHg 71%
    18:00 +30°C° 0.6 mm 1 mps 747 mmHg 78%
    19:00 +28°C° 0.6 mm 1 mps 747 mmHg 85%
    20:00 +26°C° 0.6 mm 1 mps 748 mmHg 92%
    21:00 +26°C° 0.1 mm 1 mps 748 mmHg 93%
    22:00 +26°C° 0.1 mm 1 mps 748 mmHg 95%
    23:00 +23°C° 0.1 mm 0 mps 749 mmHg 96%

    24 November, Sunday

    Time Temperature Precipitation Wind Pressure Humidity
    00:00 +23°C° 0 mm 0 mps 748 mmHg 96%
    01:00 +23°C° 0 mm 0 mps 748 mmHg 96%
    02:00 +23°C° 0 mm 0 mps 748 mmHg 96%
    03:00 +23°C° 0 mm 0 mps 748 mmHg 97%
    04:00 +23°C° 0 mm 0 mps 748 mmHg 98%
    05:00 +22°C° 0 mm 0 mps 748 mmHg 98%
    06:00 +24°C° 0 mm 0 mps 749 mmHg 94%
    07:00 +25°C° 0 mm 0 mps 750 mmHg 89%
    08:00 +26°C° 0 mm 0 mps 750 mmHg 84%
    09:00 +29°C° 0 mm 0 mps 750 mmHg 72%
    10:00 +32°C° 0 mm 0 mps 750 mmHg 60%
    11:00 +35°C° 0 mm 0 mps 750 mmHg 48%
    12:00 +35°C° 2 mm 1 mps 749 mmHg 59%
    13:00 +33°C° 2 mm 1 mps 748 mmHg 69%
    14:00 +31°C° 2 mm 1 mps 747 mmHg 80%
    15:00 +31°C° 0.4 mm 1 mps 746 mmHg 79%
    16:00 +31°C° 0.4 mm 1 mps 746 mmHg 78%
    17:00 +31°C° 0.4 mm 1 mps 746 mmHg 77%
    18:00 +30°C° 0.1 mm 1 mps 746 mmHg 82%
    19:00 +28°C° 0.1 mm 1 mps 747 mmHg 87%
    20:00 +27°C° 0.1 mm 1 mps 747 mmHg 91%
    21:00 +26°C° 0 mm 1 mps 747 mmHg 92%
    22:00 +26°C° 0 mm 1 mps 748 mmHg 93%
    23:00 +24°C° 0 mm 0 mps 748 mmHg 94%

    25 November, Monday

    Time Temperature Precipitation Wind Pressure Humidity
    00:00 +23°C° 0 mm 0 mps 747 mmHg 94%
    01:00 +23°C° 0 mm 0 mps 747 mmHg 94%
    02:00 +23°C° 0 mm 0 mps 747 mmHg 94%
    03:00 +23°C° 0 mm 0 mps 747 mmHg 94%
    04:00 +23°C° 0 mm 0 mps 747 mmHg 94%
    05:00 +23°C° 0 mm 0 mps 747 mmHg 94%
    06:00 +24°C° 0 mm 0 mps 748 mmHg 88%
    07:00 +26°C° 0 mm 0 mps 748 mmHg 81%
    08:00 +27°C° 0 mm 0 mps 749 mmHg 74%
    09:00 +31°C° 0 mm 1 mps 749 mmHg 65%
    10:00 +34°C° 0 mm 1 mps 749 mmHg 56%
    11:00 +36°C° 0 mm 1 mps 748 mmHg 47%
    12:00 +36°C° 0 mm 1 mps 748 mmHg 47%
    13:00 +36°C° 0 mm 1 mps 747 mmHg 47%
    14:00 +36°C° 0 mm 1 mps 746 mmHg 47%
    15:00 +35°C° 0 mm 1 mps 745 mmHg 50%
    16:00 +35°C° 0 mm 1 mps 745 mmHg 53%
    17:00 +34°C° 0 mm 1 mps 744 mmHg 56%
    18:00 +33°C° 0 mm 1 mps 745 mmHg 63%
    19:00 +31°C° 0 mm 1 mps 745 mmHg 70%
    20:00 +27°C° 0 mm 0 mps 745 mmHg 76%
    21:00 +26°C° 0 mm 0 mps 745 mmHg 78%
    22:00 +26°C° 0 mm 0 mps 746 mmHg 80%
    23:00 +25°C° 0 mm 0 mps 746 mmHg 82%

    26 November, Tuesday

    Time Temperature Precipitation Wind Pressure Humidity
    00:00 +25°C° 0 mm 0 mps 746 mmHg 83%
    01:00 +25°C° 0 mm 0 mps 746 mmHg 85%
    02:00 +25°C° 0 mm 0 mps 746 mmHg 86%
    03:00 +24°C° 0.2 mm 0 mps 746 mmHg 87%
    04:00 +24°C° 0.2 mm 0 mps 746 mmHg 89%
    05:00 +26°C° 0.2 mm 1 mps 746 mmHg 90%
    06:00 +27°C° 0.5 mm 1 mps 747 mmHg 90%
    07:00 +27°C° 0.5 mm 1 mps 748 mmHg 89%
    08:00 +28°C° 0.5 mm 1 mps 749 mmHg 89%
    09:00 +30°C° 1 mm 1 mps 749 mmHg 81%
    10:00 +32°C° 1 mm 1 mps 749 mmHg 73%
    11:00 +35°C° 1 mm 2 mps 748 mmHg 65%
    12:00 +36°C° 0.5 mm 2 mps 747 mmHg 58%
    13:00 +36°C° 0.5 mm 1 mps 746 mmHg 51%
    14:00 +37°C° 0.5 mm 1 mps 745 mmHg 45%
    15:00 +37°C° 0 mm 1 mps 745 mmHg 47%
    16:00 +36°C° 0 mm 1 mps 745 mmHg 50%
    17:00 +35°C° 0 mm 1 mps 744 mmHg 53%
    18:00 +34°C° 0 mm 1 mps 744 mmHg 58%
    19:00 +32°C° 0 mm 1 mps 745 mmHg 63%
    20:00 +30°C° 0 mm 1 mps 745 mmHg 68%
    21:00 +30°C° 0 mm 1 mps 745 mmHg 69%
    22:00 +29°C° 0 mm 1 mps 746 mmHg 70%
    23:00 +29°C° 0 mm 1 mps 746 mmHg 71%
    Show more